TimeEST,TemperatureF,Dew PointF,Humidity,Sea Level PressureIn,VisibilityMPH,Wind Direction,Wind SpeedMPH,Gust SpeedMPH,PrecipitationIn,Events,Conditions,WindDirDegrees,DateUTC
12:54 AM,26.1,17.1,69,30.23,10.0,NW,4.6,-,N/A,,Clear,310,2013-02-22 05:54:00
1:54 AM,21.9,15.1,75,30.26,10.0,NW,3.5,-,N/A,,Clear,310,2013-02-22 06:54:00
2:54 AM,25.0,17.1,72,30.27,10.0,Variable,5.8,-,N/A,,Overcast,0,2013-02-22 07:54:00
3:54 AM,28.0,17.1,63,30.28,10.0,NNW,6.9,-,N/A,,Clear,340,2013-02-22 08:54:00
4:54 AM,27.0,16.0,63,30.30,10.0,NW,5.8,-,N/A,,Clear,320,2013-02-22 09:54:00
5:54 AM,26.1,16.0,66,30.32,10.0,NNW,4.6,-,N/A,,Clear,340,2013-02-22 10:54:00
6:54 AM,18.0,12.9,81,30.36,10.0,SSW,6.9,-,N/A,,Clear,200,2013-02-22 11:54:00
7:54 AM,27.0,16.0,63,30.39,10.0,Calm,Calm,-,N/A,,Clear,0,2013-02-22 12:54:00
8:54 AM,32.0,16.0,52,30.41,10.0,NNW,6.9,-,0.00,,Clear,340,2013-02-22 13:54:00
9:54 AM,33.1,16.0,50,30.38,10.0,North,9.2,-,0.00,,Clear,360,2013-02-22 14:54:00
10:54 AM,35.1,17.1,48,30.38,10.0,North,10.4,-,0.00,,Clear,350,2013-02-22 15:54:00
11:54 AM,36.0,16.0,44,30.36,10.0,NNE,4.6,-,0.00,,Clear,20,2013-02-22 16:54:00
12:54 PM,37.0,17.1,44,30.35,10.0,Calm,Calm,-,N/A,,Clear,0,2013-02-22 17:54:00
1:54 PM,37.9,16.0,41,30.33,10.0,Calm,Calm,-,N/A,,Clear,0,2013-02-22 18:54:00
2:54 PM,37.9,16.0,41,30.32,10.0,Calm,Calm,-,N/A,,Clear,0,2013-02-22 19:54:00
3:54 PM,37.9,17.1,43,30.33,10.0,Calm,Calm,-,N/A,,Clear,0,2013-02-22 20:54:00
4:54 PM,37.0,16.0,42,30.32,10.0,Calm,Calm,-,N/A,,Clear,0,2013-02-22 21:54:00
5:54 PM,30.0,18.0,61,30.32,10.0,Calm,Calm,-,N/A,,Clear,0,2013-02-22 22:54:00
6:54 PM,27.0,18.0,69,30.34,10.0,Calm,Calm,-,N/A,,Clear,0,2013-02-22 23:54:00
7:54 PM,27.0,18.0,69,30.34,10.0,Calm,Calm,-,N/A,,Clear,0,2013-02-23 00:54:00
8:54 PM,25.0,18.0,75,30.35,10.0,Calm,Calm,-,N/A,,Clear,0,2013-02-23 01:54:00
9:54 PM,27.0,19.0,72,30.34,10.0,Calm,Calm,-,N/A,,Clear,0,2013-02-23 02:54:00
10:54 PM,27.0,18.0,69,30.34,10.0,Calm,Calm,-,N/A,,Clear,0,2013-02-23 03:54:00
11:54 PM,24.1,18.0,77,30.34,10.0,Calm,Calm,-,N/A,,Clear,0,2013-02-23 04:54:00